Flag for U.S.A. Weather past 2 weeks in Kalispell, Montana, U.S.A.

Now
91 °F

Passing clouds.


Feels Like: 87 °F
Forecast: 61 / 92 °F
Wind: 7 mph from North

Location: Kalispell - Glacier Park International

Current Time: Jun 30, 2015 at 4:32:02 PM

Latest Report: Jun 30, 2015 at 2:55 PM


Visibility: 10 mi

Pressure: 29.91 "Hg

Humidity: 20%

Dew point: 44 °F

Location of KalispellLocation

Historic Weather in Kalispell — Graph

°F

Kalispell temperature yesterday

Maximum temperature yesterday: 88 °F (at 4:55 PM)
Minimum temperature yesterday: 64 °F (at 4:55 AM)
Average temperature yesterday: 78 °F

Past Weeks' High & Low Weather Summary

 TemperatureHumidityPressure
High101 °F (Jun 28, 4:55 PM)93% (Jun 20, 5:55 AM)30.12 "Hg (Jun 20, 5:55 AM)
Low38 °F (Jun 21, 5:55 AM)12% (Jun 28, 4:55 PM)29.76 "Hg (Jun 18, 7:55 PM)
Average70 °F46%29.95 "Hg
* Reported Jun 15 2:55 PM — Jun 30 2:55 PM, Kalispell, Weather by CustomWeather, © 2015

Note: Actual official high and low records may vary slightly from our data, if they occured in-between our weather recording intervals... More about our weather records

Advertising

Kalispell weather history for previous 24 hours

 ConditionsComfort  
Time TempWeatherWind HumidityBarometerVisibility
2:55 PM
Tue, Jun 30
91 °FPassing clouds.7 mph20%29.91 "Hg10 mi
1:55 PM90 °FSunny.9 mph19%29.92 "Hg10 mi
12:55 PM88 °FPassing clouds.6 mph22%29.93 "Hg10 mi
11:55 AM83 °FSunny.3 mph33%29.95 "Hg10 mi
10:55 AM81 °FSunny.5 mph35%29.95 "Hg10 mi
9:55 AM76 °FSunny.No wind48%29.97 "Hg10 mi
8:55 AM72 °FSunny.No wind59%29.96 "Hg10 mi
7:55 AM67 °FSunny.No wind68%29.96 "Hg10 mi
6:55 AM62 °FSunny.No wind73%29.96 "Hg10 mi
5:55 AM55 °FClear.No wind87%29.96 "Hg10 mi
4:55 AM61 °FClear.No wind75%29.94 "Hg10 mi
3:55 AM62 °FClear.3 mph75%29.93 "Hg10 mi
2:55 AM71 °FPassing clouds.3 mph57%29.91 "Hg10 mi
1:55 AM74 °FPassing clouds.5 mph48%29.92 "Hg10 mi
12:55 AM72 °FClear.7 mph57%29.90 "Hg10 mi
11:55 PM
Mon, Jun 29
65 °FClear.No wind76%29.89 "Hg10 mi
10:55 PM73 °FClear.3 mph57%29.87 "Hg10 mi
9:55 PM74 °FSunny.No wind60%29.85 "Hg10 mi
8:55 PM84 °FSunny.No wind43%29.85 "Hg10 mi
7:55 PM88 °FSunny.5 mph35%29.85 "Hg10 mi
6:55 PM86 °FPassing clouds.6 mph35%29.88 "Hg10 mi
5:55 PM88 °FSunny.6 mph30%29.88 "Hg10 mi
4:55 PM88 °FSunny.6 mph30%29.91 "Hg10 mi
Weather by CustomWeather, © 2015

See weather overviewHow to use our weather pages